Location: Unspecified
(43.4680°N, 87.1740°E)
Time: 20:34:33
(UTC+00:00)

Cosmos 1959 Rocket - Pass Details

Date: 17 April 2021
Orbit: 948 x 996 km, 83.0° (Epoch: 11 May)

Event Time Altitude Azimuth Distance (km) Brightness Sun altitude
Rises 20:19:19 0° 349° (NNW) 3,725 8.1 -28.4°
Reaches altitude 10° 20:21:52 10° 346° (NNW) 2,769 7.3 -28.1°
Enters shadow 20:28:07 63° 268° (W) 1,094 4.5 -27.4°
